Danville, IL

3:26 AM CST on February 25, 2017 (GMT -0600)
Vermilion County

Weather History for KDNV - July, 2013

Change the Weather History Date:

Thursday, July 11, 2013

  Actual Average (KCMI) Record (KCMI)
Temperature  
Mean Temperature 72 °F -  
Max Temperature 85 °F 82 °F 95 °F (2011)
Min Temperature 58 °F 61 °F 54 °F (1997)
Cooling Degree Days 6    
Growing Degree Days 22 (Base 50)    
Moisture  
Dew Point 59 °F    
Average Humidity 68    
Maximum Humidity 93    
Minimum Humidity 41    
Precipitation  
Precipitation 0.00 in - - ()
Sea Level Pressure  
Sea Level Pressure 30.04 in    
Wind  
Wind Speed 7 mph (NNE)    
Max Wind Speed 12 mph    
Max Gust Speed 17 mph    
Visibility 8 miles    
Events Rain    
Averages and records for this station are not official NWS values.
T = Trace of Precipitation, MM = Missing Value Source: NWS Daily Summary

Daily Weather History Graph

Daily Weather History Graph

Search for Another Location

Airport or City:

Trip Planner

Search our weather history database for the weather conditions in past years. The results will help you decide how hot, cold, wet, or windy it might be!

Date:

Astronomy

Jul. 11, 2013 Rise Set
Actual Time 5:30 AM CDT 8:20 PM CDT
Civil Twilight 4:58 AM CDT 8:52 PM CDT
Nautical Twilight 4:17 AM CDT 9:33 PM CDT
Astronomical Twilight 3:31 AM CDT 10:19 PM CDT
Moon 8:49 AM CDT (7/11) 10:00 PM CDT (7/11)
Length of Visible Light 15h 54m
Length of Day
14h 49m
Waxing Crescent, 11% of the Moon is Illuminated
Jul 11
Waxing Crescent
Jul 15
First Quarter
Jul 22
Full
Jul 29
Last Quarter
Aug 6
New

Hourly Weather History & Observations

Time (CDT) Temp. Heat Index Dew Point Humidity Pressure Visibility Wind Dir Wind Speed Gust Speed Precip Events Conditions
12:15 AM 64.4 °F - 59.9 °F 85% 29.98 in 7.0 mi NNE 5.8 mph - N/A Rain Light Rain
12:35 AM 63.7 °F - 59.7 °F 87% 29.98 in 7.0 mi North 5.8 mph - N/A   Unknown
12:55 AM 63.5 °F - 60.3 °F 89% 29.99 in 10.0 mi North 6.9 mph - N/A   Unknown
1:15 AM 63.5 °F - 60.4 °F 90% 29.99 in 10.0 mi North 6.9 mph - N/A   Unknown
1:35 AM 63.5 °F - 60.4 °F 90% 29.99 in 10.0 mi North 5.8 mph - N/A   Unknown
1:55 AM 62.6 °F - 59.4 °F 89% 29.99 in 10.0 mi Calm Calm - N/A   Unknown
2:15 AM 61.3 °F - 58.3 °F 90% 29.99 in 10.0 mi North 4.6 mph - N/A   Unknown
2:35 AM 61.2 °F - 58.3 °F 90% 30.00 in 10.0 mi North 4.6 mph - N/A   Unknown
2:55 AM 61.0 °F - 58.1 °F 90% 30.00 in 10.0 mi North 5.8 mph - N/A   Unknown
3:15 AM 60.8 °F - 58.1 °F 91% 30.00 in 10.0 mi NNW 6.9 mph - N/A   Unknown
3:35 AM 60.6 °F - 58.1 °F 91% 30.00 in 10.0 mi North 6.9 mph - N/A   Unknown
3:55 AM 60.1 °F - 57.7 °F 92% 30.00 in 10.0 mi North 6.9 mph - N/A   Unknown
4:15 AM 59.9 °F - 57.4 °F 91% 30.00 in 10.0 mi North 5.8 mph - N/A   Unknown
4:35 AM 59.2 °F - 56.8 °F 92% 30.00 in 10.0 mi North 6.9 mph - N/A   Unknown
4:55 AM 59.0 °F - 56.5 °F 91% 30.01 in 10.0 mi North 4.6 mph - N/A   Unknown
5:15 AM 58.6 °F - 56.1 °F 91% 30.01 in 10.0 mi North 6.9 mph - N/A   Unknown
5:35 AM 58.5 °F - 55.9 °F 91% 30.02 in 7.0 mi North 8.1 mph - N/A   Unknown
5:55 AM 59.2 °F - 57.2 °F 93% 30.03 in 7.0 mi North 6.9 mph - N/A   Unknown
6:15 AM 60.8 °F - 58.1 °F 91% 30.04 in 7.0 mi North 6.9 mph - N/A   Unknown
6:35 AM 61.9 °F - 59.0 °F 90% 30.04 in 7.0 mi North 5.8 mph - N/A   Clear
6:55 AM 63.7 °F - 60.1 °F 88% 30.04 in 7.0 mi North 6.9 mph - N/A   Unknown
7:15 AM 65.1 °F - 61.0 °F 86% 30.04 in 7.0 mi North 6.9 mph - N/A   Unknown
7:35 AM 67.8 °F - 63.0 °F 84% 30.04 in 7.0 mi North 5.8 mph - N/A   Unknown
7:55 AM 69.8 °F - 63.1 °F 79% 30.05 in 7.0 mi North 6.9 mph - N/A   Unknown
8:15 AM 70.9 °F - 62.4 °F 75% 30.05 in 7.0 mi North 9.2 mph - N/A   Unknown
8:35 AM 72.1 °F - 62.1 °F 70% 30.05 in 10.0 mi North 10.4 mph - N/A   Clear
8:55 AM 73.6 °F - 62.4 °F 68% 30.05 in 7.0 mi North 9.2 mph - N/A   Clear
9:15 AM 74.7 °F - 61.9 °F 64% 30.06 in 7.0 mi North 9.2 mph - N/A   Clear
9:35 AM 75.9 °F - 62.2 °F 62% 30.06 in 5.0 mi NNE 10.4 mph 16.1 mph N/A   Haze
9:55 AM 77.0 °F - 63.3 °F 63% 30.05 in 7.0 mi North 8.1 mph - N/A   Clear
10:15 AM 78.4 °F - 64.6 °F 62% 30.06 in 5.0 mi NNE 9.2 mph - N/A   Haze
10:35 AM 79.2 °F - 61.0 °F 54% 30.06 in 5.0 mi NNE 10.4 mph - N/A   Haze
10:55 AM 80.2 °F 81.5 °F 63.0 °F 55% 30.07 in 7.0 mi NNE 8.1 mph - N/A   Clear
11:15 AM 81.0 °F 81.8 °F 61.2 °F 51% 30.07 in 7.0 mi NNE 9.2 mph - N/A   Clear
11:35 AM 80.4 °F 81.2 °F 60.4 °F 50% 30.07 in 7.0 mi NE 8.1 mph 17.3 mph N/A   Scattered Clouds
11:55 AM 82.2 °F 83.0 °F 62.1 °F 50% 30.07 in 7.0 mi NE 10.4 mph - N/A   Scattered Clouds
12:15 PM 83.1 °F 84.0 °F 62.6 °F 50% 30.07 in 7.0 mi NE 10.4 mph - N/A   Scattered Clouds
12:35 PM 83.7 °F 83.9 °F 60.6 °F 46% 30.06 in 7.0 mi NNE 9.2 mph - N/A   Scattered Clouds
12:55 PM 82.6 °F 82.8 °F 59.9 °F 46% 30.06 in 5.0 mi NE 8.1 mph - N/A   Haze
1:15 PM 84.0 °F 84.5 °F 61.5 °F 47% 30.06 in 7.0 mi NE 8.1 mph - N/A   Clear
1:35 PM 84.2 °F 84.2 °F 59.9 °F 44% 30.06 in 5.0 mi NNE 6.9 mph - N/A   Haze
1:55 PM 84.6 °F 84.6 °F 60.4 °F 44% 30.06 in 5.0 mi NNE 9.2 mph - N/A   Haze
2:15 PM 84.6 °F 84.6 °F 60.4 °F 44% 30.06 in 7.0 mi NNE 8.1 mph - N/A   Scattered Clouds
2:35 PM 83.5 °F 83.7 °F 60.6 °F 46% 30.06 in 7.0 mi NNE 10.4 mph - N/A   Scattered Clouds
2:55 PM 83.8 °F 84.0 °F 60.6 °F 45% 30.06 in 7.0 mi NE 11.5 mph - N/A   Clear
3:15 PM 83.8 °F 83.8 °F 60.1 °F 44% 30.05 in 7.0 mi North 6.9 mph - N/A   Clear
3:35 PM 84.6 °F 84.4 °F 59.5 °F 43% 30.05 in 7.0 mi North 9.2 mph - N/A   Scattered Clouds
3:55 PM 84.6 °F 84.0 °F 58.5 °F 41% 30.05 in 7.0 mi NNE 8.1 mph - N/A   Clear
4:15 PM 85.5 °F 85.7 °F 61.0 °F 44% 30.05 in 7.0 mi ENE 8.1 mph - N/A   Scattered Clouds
4:35 PM 83.5 °F 82.9 °F 57.4 °F 41% 30.05 in 7.0 mi NNE 8.1 mph - N/A   Scattered Clouds
4:55 PM 83.8 °F 83.6 °F 59.0 °F 43% 30.05 in 7.0 mi NNE 8.1 mph - N/A   Clear
5:15 PM 82.9 °F 82.6 °F 57.7 °F 42% 30.05 in 7.0 mi NE 9.2 mph - N/A   Clear
5:35 PM 82.6 °F 82.2 °F 57.2 °F 42% 30.05 in 7.0 mi NNE 10.4 mph - N/A   Clear
5:55 PM 82.4 °F 82.0 °F 57.4 °F 42% 30.05 in 7.0 mi NE 5.8 mph - N/A   Clear
6:15 PM 81.7 °F 81.5 °F 56.8 °F 43% 30.04 in 7.0 mi NE 3.5 mph - N/A   Clear
6:35 PM 81.7 °F 81.6 °F 57.7 °F 44% 30.04 in 7.0 mi NNE 4.6 mph - N/A   Clear
6:55 PM 80.6 °F 80.7 °F 56.7 °F 44% 30.04 in 4.0 mi NE 4.6 mph - N/A   Haze
7:15 PM 79.0 °F - 56.5 °F 46% 30.04 in 7.0 mi NNE 4.6 mph - N/A   Clear
7:35 PM 76.6 °F - 59.0 °F 54% 30.04 in 10.0 mi NNE 4.6 mph - N/A   Clear
7:55 PM 73.4 °F - 59.4 °F 61% 30.03 in 7.0 mi NNE 5.8 mph - N/A   Clear
8:15 PM 70.3 °F - 58.5 °F 66% 30.03 in 7.0 mi North 5.8 mph - N/A   Clear
8:35 PM 67.3 °F - 57.6 °F 71% 30.03 in 10.0 mi North 5.8 mph - N/A   Clear
8:55 PM 65.8 °F - 59.2 °F 79% 30.04 in 10.0 mi North 6.9 mph - N/A   Clear
9:15 PM 64.8 °F - 57.9 °F 78% 30.05 in 10.0 mi North 8.1 mph - N/A   Clear
9:35 PM 64.0 °F - 54.5 °F 71% 30.05 in 10.0 mi NNE 6.9 mph - N/A   Clear
9:55 PM 63.5 °F - 56.1 °F 77% 30.05 in 10.0 mi North 6.9 mph - N/A   Clear
10:15 PM 62.2 °F - 54.7 °F 76% 30.06 in 10.0 mi North 6.9 mph - N/A   Clear
10:35 PM 61.7 °F - 55.6 °F 80% 30.06 in 10.0 mi North 5.8 mph - N/A   Clear
10:55 PM 60.4 °F - 54.7 °F 81% 30.06 in 10.0 mi NNE 3.5 mph - N/A   Unknown
11:15 PM 59.9 °F - 53.6 °F 80% 30.06 in 10.0 mi NNE 4.6 mph - N/A   Unknown
11:35 PM 59.2 °F - 54.1 °F 83% 30.06 in 10.0 mi North 4.6 mph - N/A   Unknown
11:55 PM 58.3 °F - 54.5 °F 87% 30.06 in 10.0 mi North 4.6 mph - N/A   Unknown